Temp
71 71 71 71 71 71 73 74 74 74 74 74 74 74 74 75 75 75 74 74 72 71 71 72 73 73 74 73 73 74 75 75 74 74 74 73 73 73 72 72 72 71 71 70 70 71 72 72 73 73 73 73 73 68 67 67 67 68 68 69 69 69
70 70 70 70 71 71 72 73 71 72 72 73 74 74 73 72 74 71 74 72 70 71 70 70 71 73 71 73 73 74 74 74 74 73 73 73 72 72 72 72 72 71 70 69 69 65 67 72 73 74 74 73 68 66 66 67 67 68 68 68 69 71
71 70 70 70 70 71 70 71 71 70 72 73 73 72 71 72 69 70 69 69 70 69 69 70 71 72 71 73 73 74 74 74 74 74 73 72 72 72 71 71 72 70 69 68 65 64 65 66 70 74 73 68 66 66 66 66 67 67 67 69 68 73
71 70 68 68 69 70 70 70 70 69 70 70 70 70 69 69 69 69 69 68 68 69 69 69 74 74 73 71 72 73 74 74 74 73 73 71 71 71 70 70 69 67 65 63 63 65 65 66 67 67 66 66 66 66 66 66 67 67 67 71 67 74
71 69 68 69 69 69 69 69 68 68 69 68 68 68 68 68 69 68 68 68 68 68 68 68 68 68 68 68 67 68 68 68 68 68 69 65 65 65 64 62 63 63 61 62 63 64 66 66 66 66 65 66 66 66 66 67 67 67 67 68 69 73
70 68 68 68 68 70 69 68 68 69 68 69 68 68 67 68 67 68 68 68 68 67 67 67 67 67 67 67 66 66 66 66 66 66 66 64 64 63 62 63 64 64 62 63 63 64 66 66 66 66 66 66 66 66 66 66 67 67 67 67 70 72
68 68 68 68 69 68 68 68 68 68 68 68 68 68 68 68 67 67 67 68 67 66 66 66 66 67 67 67 66 66 65 65 65 65 66 64 64 64 64 64 63 64 63 65 65 65 65 65 66 67 66 66 66 66 66 66 67 67 66 67 71 72
68 68 67 68 67 67 67 67 69 69 68 69 67 67 66 66 67 67 68 68 68 66 66 66 65 66 66 66 66 65 65 64 65 65 65 64 64 63 63 63 63 63 65 65 66 65 65 65 66 67 66 66 66 66 66 66 66 66 66 67 69 72
67 68 67 67 66 66 67 68 68 67 67 69 66 66 66 67 67 67 67 67 68 66 66 65 65 65 65 65 65 65 64 64 65 65 64 64 64 63 63 63 63 63 63 64 64 65 65 65 65 66 66 66 66 66 65 65 66 66 66 67 68 71
67 67 66 66 66 66 66 66 66 67 67 67 65 65 67 66 66 67 67 67 68 67 66 65 64 64 65 64 64 65 64 64 65 64 64 63 63 63 62 63 63 64 64 64 65 65 65 65 65 65 65 66 65 65 65 66 65 66 66 67 67 70
67 67 66 66 65 65 66 65 66 67 67 65 66 66 66 66 66 67 67 67 67 67 66 65 65 64 64 64 64 64 64 64 63 63 63 63 63 63 62 63 63 63 63 63 64 65 64 64 64 66 65 66 65 65 65 65 66 66 67 66 67 68
67 66 66 65 65 65 65 66 66 66 66 66 66 66 66 66 67 66 67 67 67 67 66 65 65 64 64 63 63 63 64 63 63 63 63 63 63 63 63 63 64 63 63 63 63 63 64 64 63 65 65 65 65 65 65 65 65 65 66 66 66 66
67 66 65 65 65 64 65 66 66 66 65 66 65 65 65 64 65 65 66 67 66 66 66 65 64 65 64 63 63 63 63 63 63 64 63 63 63 63 63 63 63 63 63 63 63 63 64 63 63 64 65 65 65 65 65 65 65 65 65 65 65 66
66 65 65 65 65 64 65 65 66 65 66 65 64 64 65 65 66 65 66 67 66 66 65 65 65 64 63 63 63 63 64 64 64 64 63 63 63 63 63 62 62 63 64 63 62 62 63 63 63 64 65 65 65 64 64 65 64 64 64 64 65 65
67 65 66 64 64 64 65 65 65 65 64 64 64 64 65 66 66 66 66 66 66 66 65 65 65 64 63 64 63 63 64 65 65 64 63 62 63 62 62 62 62 62 62 62 62 63 63 63 63 63 63 64 64 64 64 64 65 65 64 64 65 65
66 65 64 64 64 64 64 64 64 65 64 64 64 64 64 65 65 65 66 66 66 66 65 65 65 64 63 63 63 63 64 65 64 63 62 62 63 62 62 62 62 63 61 61 62 62 63 63 63 62 62 63 62 63 63 63 64 64 63 64 64 64
65 65 64 64 64 63 63 63 64 64 64 64 64 64 64 64 65 65 65 65 65 66 64 64 64 63 63 62 62 63 64 65 64 62 62 61 61 62 62 62 62 63 63 61 62 62 62 62 63 63 63 62 62 63 63 62 62 63 63 63 63 63
66 65 64 63 63 63 63 63 63 63 64 63 63 63 63 64 64 64 64 64 64 65 64 63 63 63 62 63 63 63 64 64 63 62 61 61 61 61 61 62 61 61 63 63 62 62 62 62 63 63 62 62 62 62 62 63 64 64 62 62 62 62
65 65 64 63 63 63 63 62 62 63 62 62 62 62 63 63 63 64 64 64 64 65 65 63 63 63 62 64 63 64 64 63 63 62 61 61 61 61 61 61 62 61 63 63 62 62 62 63 63 63 62 62 63 62 63 63 62 62 62 63 66 64
64 65 65 64 64 63 63 63 63 63 63 63 63 64 62 63 64 64 64 64 64 63 65 65 64 63 63 64 63 63 63 63 63 62 61 61 61 61 61 61 62 62 62 63 64 63 62 62 62 62 62 62 62 63 63 62 63 63 63 63 63 62
64 65 64 63 63 63 62 62 63 63 62 63 63 63 64 63 64 64 65 65 66 64 64 66 65 64 63 65 64 63 63 63 63 62 61 61 61 61 62 62 62 63 62 62 62 63 63 63 62 60 60 60 61 62 64 63 62 62 62 62 62 61
64 64 64 64 64 64 63 63 63 63 62 63 64 64 63 63 63 64 64 65 66 64 64 65 65 65 64 63 62 63 63 63 63 61 61 61 61 63 62 62 63 61 61 62 61 62 63 63 60 59 58 58 60 61 61 61 62 63 62 62 61 61
64 64 64 64 64 63 63 63 64 63 62 62 65 65 65 63 64 63 63 64 65 64 64 65 65 65 64 63 62 62 63 63 63 63 61 61 62 61 61 62 63 62 60 61 61 62 61 60 59 59 59 59 55 56 59 60 61 61 61 61 62 62
63 64 64 64 63 62 63 62 62 62 62 62 62 63 63 63 63 63 64 65 65 65 65 65 65 64 63 63 62 62 63 63 63 62 62 61 61 61 61 61 62 63 63 60 59 60 61 59 61 61 58 55 55 54 54 56 57 59 61 62 62 62
63 63 64 64 62 62 62 61 61 62 62 62 62 61 62 61 63 64 64 64 64 64 64 64 64 63 63 63 63 63 62 63 63 62 62 62 61 61 61 62 62 62 63 62 58 57 60 60 61 60 60 56 55 56 52 56 56 58 59 61 62 63
63 63 63 63 62 62 62 61 61 61 60 58 58 59 58 61 62 63 63 62 63 64 64 64 63 62 63 63 62 62 63 63 63 62 62 62 62 62 61 61 62 63 62 63 62 59 59 60 59 60 60 60 59 57 56 56 55 53 59 59 61 62
63 62 62 61 62 62 60 61 61 61 61 60 59 56 57 59 62 60 61 61 62 62 63 63 62 61 61 62 62 62 63 63 63 62 63 62 62 62 62 63 62 62 63 62 63 60 60 59 60 60 59 59 60 59 62 59 54 54 54 57 59 58
62 61 61 60 61 61 61 60 60 60 60 59 60 59 58 58 58 60 59 60 60 60 61 61 61 61 60 62 61 61 62 63 63 62 62 62 62 62 62 63 62 62 61 62 62 61 60 60 62 60 59 59 59 60 59 57 61 60 57 54 54 59
61 60 59 60 60 60 61 60 60 60 60 58 59 59 59 59 58 58 58 57 58 58 58 58 59 60 60 60 62 61 61 61 62 63 64 62 62 63 63 62 61 61 61 61 62 62 62 61 60 59 58 58 58 58 58 58 56 57 56 55 54 56
59 59 59 59 60 59 60 61 60 60 59 58 58 57 58 57 56 57 57 56 56 57 57 57 57 58 59 60 61 61 60 61 61 62 63 62 62 62 62 62 62 61 61 61 61 62 62 61 60 59 60 59 58 58 59 60 57 57 59 58 56 55
58 58 59 59 59 58 59 60 60 60 59 57 56 57 57 56 55 56 57 55 55 55 56 56 57 57 57 57 58 61 60 60 61 63 62 62 62 62 62 62 61 61 61 61 60 61 61 60 60 60 60 61 61 62 60 58 58 58 58 55 55 55
57 58 58 58 58 58 59 59 60 60 59 58 58 58 58 56 56 56 55 55 55 56 56 56 56 56 57 57 58 58 59 59 60 61 61 61 62 62 62 61 60 61 60 60 60 60 60 59 60 60 60 61 61 62 61 61 61 60 60 58 58 56
57 57 58 58 58 58 59 59 60 60 59 58 58 58 58 57 55 56 56 56 56 56 56 58 58 58 57 57 57 57 58 59 59 60 60 60 60 61 61 61 61 60 60 60 60 60 59 60 60 60 61 60 61 59 60 59 60 59 58 59 58 56
57 57 57 58 58 58 58 59 60 60 59 59 58 58 57 57 56 56 57 57 57 57 57 58 57 57 56 57 57 57 58 58 58 59 59 59 59 60 60 61 60 60 60 60 59 59 59 59 60 61 60 59 60 59 58 59 59 60 59 59 58 58
58 57 57 58 58 58 58 58 59 59 59 59 58 57 57 58 57 57 56 57 57 56 58 57 57 57 57 56 56 57 57 57 58 58 58 59 59 59 60 60 61 60 59 59 59 59 58 58 59 58 59 60 59 58 58 58 59 61 63 62 60 58
59 58 57 58 58 58 57 58 58 58 58 58 59 57 57 58 57 58 57 58 57 56 57 56 56 57 57 56 56 56 57 56 57 58 58 58 58 59 59 59 58 58 57 58 58 58 57 58 59 58 59 58 60 59 58 58 60 60 62 62 61 59
58 57 57 58 58 58 57 57 57 57 57 57 57 57 58 57 57 57 57 57 57 56 56 56 57 56 55 54 54 56 56 56 56 57 57 57 57 57 58 58 57 56 56 56 57 57 56 58 58 58 58 59 60 59 57 58 59 59 59 60 61 60
MSLP
1014.62 1014.62 1014.70 1014.82 1014.94 1015.06 1015.14 1015.26 1015.46 1015.66 1015.82 1015.98 1016.10 1016.26 1016.42 1016.54 1016.66 1016.82 1016.98 1017.14 1017.26 1017.34 1017.42 1017.46 1017.54 1017.66 1017.78 1017.90 1018.02 1018.14 1018.22 1018.34 1018.42 1018.42 1018.42 1018.50 1018.62 1018.78 1018.94 1019.10 1019.22 1019.22 1019.22 1019.26 1019.26 1019.26 1019.34 1019.42 1019.50 1019.62 1019.74 1019.90 1020.02 1020.26 1020.46 1020.62 1020.78 1020.90 1021.02 1021.06 1021.14 1021.18
1014.54 1014.66 1014.82 1014.94 1015.02 1015.06 1015.18 1015.38 1015.58 1015.78 1015.90 1016.02 1016.18 1016.34 1016.46 1016.58 1016.74 1016.98 1017.14 1017.30 1017.50 1017.54 1017.58 1017.66 1017.74 1017.78 1017.98 1018.06 1018.18 1018.30 1018.42 1018.54 1018.58 1018.58 1018.58 1018.62 1018.74 1018.90 1019.02 1019.22 1019.34 1019.34 1019.30 1019.34 1019.38 1019.46 1019.50 1019.54 1019.62 1019.70 1019.86 1020.02 1020.26 1020.50 1020.66 1020.78 1020.94 1021.06 1021.10 1021.14 1021.18 1021.22
1014.42 1014.62 1014.82 1014.98 1015.06 1015.14 1015.30 1015.46 1015.62 1015.78 1015.94 1016.14 1016.30 1016.50 1016.62 1016.74 1016.90 1017.10 1017.30 1017.50 1017.62 1017.90 1017.86 1017.86 1017.94 1017.98 1018.06 1018.18 1018.26 1018.38 1018.58 1018.66 1018.70 1018.70 1018.78 1018.78 1018.82 1018.98 1019.14 1019.30 1019.38 1019.42 1019.42 1019.42 1019.50 1019.62 1019.70 1019.74 1019.78 1019.82 1019.98 1020.26 1020.50 1020.66 1020.82 1020.98 1021.10 1021.14 1021.18 1021.14 1021.22 1021.22
1014.38 1014.62 1014.90 1015.14 1015.26 1015.34 1015.46 1015.54 1015.70 1015.86 1016.10 1016.30 1016.50 1016.66 1016.78 1016.90 1016.98 1017.14 1017.42 1017.62 1017.78 1018.02 1018.10 1017.98 1018.02 1018.06 1018.18 1018.38 1018.54 1018.58 1018.66 1018.70 1018.86 1018.90 1018.98 1019.02 1018.98 1019.06 1019.30 1019.42 1019.50 1019.58 1019.58 1019.62 1019.70 1019.78 1019.82 1019.90 1019.98 1020.10 1020.34 1020.54 1020.70 1020.90 1021.06 1021.14 1021.18 1021.22 1021.18 1021.18 1021.30 1021.30
1014.30 1014.62 1014.90 1015.14 1015.34 1015.50 1015.66 1015.82 1015.98 1016.14 1016.30 1016.46 1016.66 1016.74 1016.90 1016.98 1017.10 1017.18 1017.46 1017.66 1017.82 1018.02 1018.14 1018.10 1018.26 1018.38 1018.46 1018.62 1018.82 1018.98 1018.98 1019.06 1019.10 1019.18 1019.18 1019.30 1019.30 1019.34 1019.46 1019.58 1019.66 1019.66 1019.70 1019.70 1019.82 1019.90 1019.98 1020.14 1020.26 1020.38 1020.58 1020.74 1020.94 1021.14 1021.26 1021.30 1021.30 1021.26 1021.26 1021.30 1021.38 1021.38
1014.10 1014.50 1014.78 1015.06 1015.34 1015.58 1015.82 1016.10 1016.22 1016.26 1016.42 1016.62 1016.74 1016.90 1017.06 1017.18 1017.30 1017.46 1017.54 1017.66 1017.82 1018.02 1018.14 1018.30 1018.42 1018.66 1018.70 1018.82 1019.06 1019.18 1019.22 1019.26 1019.30 1019.38 1019.38 1019.54 1019.54 1019.54 1019.62 1019.66 1019.66 1019.70 1019.78 1019.74 1019.86 1019.98 1020.06 1020.18 1020.38 1020.54 1020.74 1020.98 1021.18 1021.38 1021.42 1021.42 1021.38 1021.34 1021.38 1021.50 1021.50 1021.50
1014.10 1014.46 1014.82 1015.02 1015.30 1015.62 1015.94 1016.14 1016.22 1016.30 1016.46 1016.74 1016.82 1017.02 1017.18 1017.30 1017.42 1017.58 1017.66 1017.74 1018.02 1018.14 1018.26 1018.38 1018.58 1018.78 1018.98 1019.06 1019.22 1019.30 1019.38 1019.38 1019.50 1019.58 1019.62 1019.66 1019.74 1019.74 1019.74 1019.82 1019.86 1019.86 1019.82 1019.74 1019.94 1020.10 1020.22 1020.34 1020.42 1020.62 1020.90 1021.10 1021.34 1021.50 1021.50 1021.46 1021.42 1021.50 1021.66 1021.70 1021.62 1021.62
1014.10 1014.38 1014.74 1014.94 1015.26 1015.62 1015.90 1016.10 1016.22 1016.30 1016.50 1016.66 1016.86 1017.10 1017.22 1017.34 1017.34 1017.50 1017.66 1017.78 1017.90 1018.10 1018.30 1018.50 1018.70 1018.90 1019.10 1019.22 1019.42 1019.42 1019.42 1019.54 1019.62 1019.70 1019.78 1019.82 1019.90 1019.94 1019.98 1020.06 1020.02 1020.02 1019.94 1019.90 1020.06 1020.26 1020.34 1020.46 1020.58 1020.70 1020.98 1021.26 1021.46 1021.54 1021.54 1021.50 1021.58 1021.78 1021.90 1021.90 1021.82 1021.74
1014.30 1014.58 1014.78 1014.98 1015.34 1015.58 1015.82 1016.02 1016.22 1016.46 1016.66 1016.70 1016.98 1017.14 1017.22 1017.30 1017.42 1017.46 1017.62 1017.78 1017.90 1018.22 1018.38 1018.54 1018.78 1018.94 1019.06 1019.30 1019.38 1019.42 1019.50 1019.62 1019.74 1019.90 1019.90 1019.98 1019.94 1019.94 1020.06 1020.14 1020.10 1020.10 1020.10 1020.14 1020.22 1020.38 1020.46 1020.58 1020.70 1020.86 1021.02 1021.34 1021.50 1021.58 1021.58 1021.66 1021.86 1022.06 1022.10 1022.02 1021.94 1021.90
1014.66 1014.82 1014.98 1015.22 1015.46 1015.62 1015.74 1016.06 1016.30 1016.50 1016.66 1016.86 1017.42 1017.54 1017.38 1017.38 1017.46 1017.50 1017.74 1017.86 1017.98 1018.14 1018.34 1018.58 1018.82 1018.98 1019.06 1019.26 1019.34 1019.46 1019.54 1019.70 1019.90 1019.98 1019.98 1020.02 1019.98 1019.94 1020.06 1020.22 1020.18 1020.22 1020.26 1020.30 1020.34 1020.46 1020.50 1020.74 1020.90 1021.06 1021.22 1021.46 1021.58 1021.58 1021.62 1021.82 1022.14 1022.26 1022.18 1022.14 1022.14 1022.06
1014.82 1014.98 1015.18 1015.38 1015.58 1015.78 1015.86 1016.06 1016.34 1016.46 1016.78 1017.10 1017.18 1017.54 1017.54 1017.38 1017.38 1017.54 1017.78 1017.86 1017.98 1018.10 1018.34 1018.58 1018.78 1018.90 1019.02 1019.22 1019.42 1019.54 1019.70 1019.86 1020.02 1020.10 1020.06 1020.06 1020.06 1020.06 1020.14 1020.22 1020.30 1020.38 1020.42 1020.46 1020.54 1020.58 1020.62 1020.86 1021.06 1021.26 1021.42 1021.50 1021.58 1021.58 1021.74 1022.02 1022.22 1022.22 1022.26 1022.30 1022.30 1022.26
1014.90 1015.06 1015.30 1015.50 1015.62 1015.78 1015.90 1015.98 1016.38 1016.54 1016.86 1016.98 1017.14 1017.50 1017.66 1017.70 1017.66 1017.98 1017.94 1017.98 1017.98 1018.14 1018.34 1018.58 1018.70 1018.86 1019.02 1019.30 1019.50 1019.66 1019.86 1020.02 1020.10 1020.14 1020.10 1020.06 1020.10 1020.10 1020.18 1020.26 1020.38 1020.46 1020.54 1020.54 1020.66 1020.74 1020.78 1020.90 1021.22 1021.42 1021.50 1021.58 1021.58 1021.66 1021.94 1022.18 1022.26 1022.30 1022.38 1022.46 1022.46 1022.42
1014.94 1015.14 1015.38 1015.66 1015.98 1016.18 1016.18 1016.06 1016.34 1016.54 1016.74 1016.90 1017.18 1017.54 1017.78 1017.98 1018.30 1018.38 1018.22 1017.98 1018.02 1018.10 1018.26 1018.54 1018.70 1018.78 1019.02 1019.30 1019.58 1019.78 1019.98 1020.10 1020.14 1020.10 1020.14 1020.14 1020.14 1020.18 1020.26 1020.38 1020.54 1020.58 1020.66 1020.74 1020.78 1020.94 1020.94 1021.06 1021.34 1021.54 1021.54 1021.62 1021.66 1021.86 1022.10 1022.30 1022.50 1022.58 1022.62 1022.66 1022.66 1022.58
1015.02 1015.26 1015.50 1015.74 1015.86 1016.06 1016.38 1016.26 1016.26 1016.46 1016.70 1016.94 1017.22 1017.50 1017.58 1017.74 1018.30 1018.74 1018.34 1018.02 1018.14 1018.18 1018.30 1018.50 1018.66 1018.94 1019.14 1019.42 1019.66 1019.86 1020.02 1020.10 1020.10 1020.10 1020.18 1020.18 1020.26 1020.30 1020.42 1020.54 1020.70 1020.74 1020.86 1020.90 1021.06 1021.10 1021.06 1021.30 1021.54 1021.58 1021.58 1021.62 1021.78 1022.18 1022.46 1022.62 1022.82 1022.86 1022.90 1022.82 1022.82 1022.82
1015.06 1015.38 1015.54 1015.90 1015.82 1016.02 1016.38 1016.34 1016.38 1016.58 1016.82 1017.02 1017.30 1017.46 1017.58 1017.78 1018.02 1018.34 1018.10 1018.10 1018.14 1018.22 1018.34 1018.54 1018.74 1018.94 1019.22 1019.46 1019.70 1019.90 1020.02 1020.06 1020.10 1020.14 1020.22 1020.30 1020.34 1020.46 1020.54 1020.74 1020.82 1020.94 1021.10 1021.14 1021.14 1021.18 1021.18 1021.38 1021.62 1021.74 1021.86 1021.90 1021.94 1022.10 1022.42 1022.66 1022.70 1022.94 1022.90 1022.90 1022.90 1022.98
1015.18 1015.46 1015.66 1015.78 1015.94 1016.14 1016.34 1016.34 1016.42 1016.58 1016.86 1017.10 1017.30 1017.46 1017.62 1017.74 1017.90 1018.02 1018.10 1018.18 1018.22 1018.26 1018.38 1018.58 1018.78 1018.98 1019.26 1019.50 1019.70 1019.90 1019.98 1020.02 1020.06 1020.14 1020.26 1020.34 1020.42 1020.54 1020.70 1020.86 1020.98 1020.94 1021.18 1021.42 1021.26 1021.34 1021.42 1021.70 1021.82 1021.98 1022.10 1022.18 1022.70 1022.26 1022.54 1022.70 1022.86 1023.02 1023.02 1022.98 1023.06 1023.10
1015.30 1015.50 1015.70 1015.90 1016.06 1016.18 1016.30 1016.46 1016.50 1016.66 1016.94 1017.14 1017.30 1017.50 1017.62 1017.74 1017.90 1018.06 1018.18 1018.26 1018.26 1018.30 1018.46 1018.62 1018.86 1019.02 1019.22 1019.46 1019.70 1019.82 1019.94 1019.94 1020.02 1020.14 1020.30 1020.46 1020.54 1020.62 1020.74 1020.94 1021.10 1021.10 1021.06 1021.34 1021.42 1021.46 1021.70 1021.90 1022.06 1022.18 1022.22 1022.22 1022.62 1022.42 1022.74 1022.90 1023.02 1023.10 1023.10 1023.18 1023.26 1023.26
1015.30 1015.50 1015.66 1015.86 1016.02 1016.18 1016.30 1016.46 1016.66 1016.86 1017.02 1017.22 1017.38 1017.46 1017.66 1017.78 1018.02 1018.14 1018.26 1018.34 1018.30 1018.38 1018.58 1018.74 1018.90 1019.10 1019.22 1019.38 1019.58 1019.70 1019.86 1019.94 1020.06 1020.18 1020.38 1020.54 1020.70 1020.70 1020.78 1020.86 1021.14 1021.22 1021.26 1021.26 1021.42 1021.50 1021.94 1022.06 1022.18 1022.34 1022.42 1022.58 1022.82 1022.78 1022.90 1023.02 1023.06 1023.10 1023.26 1023.42 1023.46 1023.46
1015.34 1015.54 1015.74 1015.94 1016.06 1016.22 1016.38 1016.62 1016.82 1017.02 1017.22 1017.38 1017.46 1017.58 1017.70 1017.90 1018.10 1018.26 1018.30 1018.30 1018.38 1018.50 1018.70 1018.86 1018.98 1019.10 1019.22 1019.38 1019.58 1019.70 1019.86 1019.98 1020.06 1020.22 1020.42 1020.66 1020.78 1020.82 1020.90 1020.98 1021.06 1021.34 1021.38 1021.38 1021.34 1021.54 1021.90 1022.06 1022.34 1022.50 1022.62 1022.82 1022.86 1022.98 1023.02 1023.10 1023.22 1023.34 1023.42 1023.46 1023.42 1023.62
1015.34 1015.46 1015.70 1015.98 1016.14 1016.34 1016.54 1016.82 1017.10 1017.26 1017.46 1017.54 1017.62 1017.74 1017.86 1017.98 1018.06 1018.14 1018.22 1018.34 1018.46 1018.58 1018.66 1018.86 1019.02 1019.14 1019.30 1019.50 1019.66 1019.74 1019.90 1020.02 1020.14 1020.26 1020.50 1020.74 1020.90 1020.90 1020.98 1021.10 1021.22 1021.26 1021.54 1021.58 1021.54 1021.70 1021.86 1022.10 1022.50 1022.74 1022.90 1022.98 1023.06 1023.18 1023.30 1023.34 1023.38 1023.42 1023.54 1023.54 1023.66 1023.82
1015.30 1015.38 1015.70 1015.98 1016.22 1016.38 1016.66 1016.94 1017.14 1017.26 1017.42 1017.54 1017.66 1017.78 1017.94 1017.98 1017.98 1018.14 1018.30 1018.42 1018.50 1018.58 1018.66 1018.86 1019.02 1019.14 1019.34 1019.50 1019.66 1019.78 1019.90 1020.10 1020.22 1020.34 1020.54 1020.74 1020.86 1020.98 1021.02 1021.06 1021.22 1021.34 1021.50 1021.74 1021.94 1021.86 1021.98 1022.02 1022.50 1023.22 1023.38 1023.54 1023.50 1023.34 1023.38 1023.46 1023.54 1023.58 1023.66 1023.66 1023.74 1023.86
1015.22 1015.46 1015.62 1015.82 1016.06 1016.30 1016.34 1016.50 1016.74 1017.02 1017.22 1017.50 1017.70 1017.82 1018.02 1018.02 1018.06 1018.14 1018.22 1018.34 1018.42 1018.54 1018.70 1018.82 1018.98 1019.14 1019.22 1019.42 1019.66 1019.78 1019.90 1020.10 1020.26 1020.46 1020.62 1020.78 1020.90 1020.94 1021.02 1021.10 1021.18 1021.58 1021.62 1021.66 1021.98 1022.02 1022.02 1022.02 1022.94 1023.18 1023.38 1023.74 1023.62 1023.46 1023.58 1023.62 1023.66 1023.78 1023.78 1023.78 1023.86 1023.94
1015.18 1015.38 1015.62 1015.78 1015.98 1016.18 1016.34 1016.42 1016.58 1016.90 1017.10 1017.50 1017.50 1017.58 1017.78 1017.90 1017.98 1018.10 1018.22 1018.26 1018.42 1018.54 1018.74 1018.82 1018.94 1019.10 1019.30 1019.50 1019.62 1019.90 1019.90 1020.06 1020.30 1020.46 1020.66 1020.90 1020.98 1021.06 1021.06 1021.14 1021.14 1021.34 1021.90 1021.94 1022.10 1022.26 1022.34 1022.34 1022.86 1023.10 1023.06 1023.34 1023.98 1024.10 1023.82 1023.74 1023.82 1023.98 1023.98 1024.02 1023.94 1024.02
1015.10 1015.30 1015.54 1015.74 1015.94 1016.10 1016.22 1016.38 1016.58 1016.82 1017.10 1017.26 1017.58 1017.70 1017.86 1017.94 1018.02 1018.10 1018.30 1018.30 1018.46 1018.58 1018.70 1018.82 1018.94 1019.06 1019.26 1019.38 1019.54 1019.74 1019.86 1020.06 1020.30 1020.38 1020.58 1020.86 1021.06 1021.14 1021.14 1021.22 1021.26 1021.34 1021.42 1022.22 1022.30 1022.50 1022.30 1022.46 1022.46 1022.62 1023.42 1023.62 1024.22 1024.10 1024.58 1024.66 1024.54 1024.50 1024.30 1024.22 1024.26 1024.42
1015.06 1015.26 1015.46 1015.66 1015.90 1016.02 1016.26 1016.58 1016.82 1017.06 1017.18 1017.50 1017.66 1017.90 1017.98 1018.18 1018.14 1018.18 1018.34 1018.46 1018.58 1018.62 1018.70 1018.78 1018.90 1019.02 1019.14 1019.34 1019.46 1019.66 1019.86 1020.02 1020.22 1020.38 1020.50 1020.70 1020.94 1021.02 1021.06 1021.10 1021.18 1021.34 1021.42 1021.66 1022.34 1022.42 1022.42 1022.38 1022.34 1022.42 1022.58 1023.74 1024.22 1024.18 1024.34 1024.42 1024.42 1024.90 1024.70 1024.58 1024.70 1024.66
1015.06 1015.26 1015.46 1015.66 1015.86 1016.02 1016.30 1016.58 1016.94 1017.26 1017.58 1017.78 1018.06 1018.10 1018.14 1018.18 1018.30 1018.34 1018.42 1018.54 1018.58 1018.58 1018.66 1018.78 1018.90 1019.02 1019.18 1019.34 1019.54 1019.70 1019.82 1019.98 1020.18 1020.34 1020.42 1020.54 1020.74 1020.98 1021.06 1021.14 1021.18 1021.22 1021.42 1021.50 1021.66 1022.18 1022.50 1022.58 1022.62 1022.62 1022.46 1022.34 1022.34 1022.78 1023.86 1024.22 1024.10 1025.58 1025.18 1025.10 1025.14 1025.02
1015.06 1015.26 1015.46 1015.70 1015.90 1016.06 1016.46 1016.66 1016.82 1016.98 1017.18 1017.42 1017.74 1017.90 1017.74 1017.86 1018.02 1018.22 1018.34 1018.50 1018.62 1018.66 1018.70 1018.82 1018.98 1019.10 1019.22 1019.38 1019.54 1019.70 1019.82 1019.90 1020.10 1020.26 1020.38 1020.50 1020.70 1020.82 1020.90 1021.02 1021.18 1021.30 1021.42 1021.54 1021.66 1022.06 1022.30 1022.54 1022.70 1022.70 1022.70 1022.50 1022.26 1022.22 1022.30 1023.26 1024.30 1025.02 1025.54 1025.50 1025.42 1025.50
1015.10 1015.26 1015.46 1015.70 1015.90 1016.06 1016.38 1016.66 1016.86 1017.02 1017.18 1017.34 1017.46 1017.66 1017.78 1017.94 1018.06 1018.18 1018.38 1018.54 1018.62 1018.78 1018.82 1018.90 1019.06 1019.18 1019.26 1019.42 1019.58 1019.70 1019.78 1019.90 1020.02 1020.22 1020.38 1020.50 1020.58 1020.74 1020.90 1021.10 1021.22 1021.38 1021.42 1021.66 1021.66 1021.90 1022.30 1022.26 1022.22 1022.50 1022.78 1022.54 1022.46 1022.54 1022.70 1022.62 1022.82 1023.30 1024.38 1025.46 1025.94 1025.70
1015.14 1015.30 1015.50 1015.66 1015.86 1016.06 1016.22 1016.42 1016.66 1016.90 1017.22 1017.42 1017.46 1017.66 1017.86 1018.02 1018.14 1018.26 1018.50 1018.70 1018.78 1018.94 1019.02 1019.10 1019.18 1019.26 1019.38 1019.46 1019.54 1019.66 1019.78 1019.90 1020.02 1020.14 1020.30 1020.50 1020.62 1020.70 1020.82 1021.06 1021.26 1021.42 1021.42 1021.58 1021.66 1021.70 1021.86 1022.02 1022.10 1022.58 1022.86 1022.86 1022.78 1022.82 1022.86 1023.02 1023.30 1023.34 1024.02 1025.26 1025.94 1025.74
1015.22 1015.38 1015.54 1015.66 1015.86 1016.10 1016.26 1016.46 1016.70 1016.94 1017.14 1017.46 1017.62 1017.90 1017.98 1018.22 1018.38 1018.50 1018.66 1018.86 1018.98 1019.06 1019.14 1019.22 1019.30 1019.38 1019.42 1019.50 1019.58 1019.70 1019.82 1019.90 1020.02 1020.10 1020.22 1020.46 1020.58 1020.74 1020.86 1020.94 1021.06 1021.14 1021.26 1021.38 1021.54 1021.62 1021.66 1022.06 1022.38 1022.38 1022.18 1022.54 1022.70 1023.06 1022.98 1023.18 1023.42 1023.58 1023.98 1024.14 1024.90 1025.74
1015.42 1015.54 1015.62 1015.74 1015.90 1016.18 1016.34 1016.50 1016.70 1016.90 1017.10 1017.46 1017.82 1017.98 1018.30 1018.50 1018.58 1018.66 1018.70 1018.90 1018.98 1019.06 1019.10 1019.14 1019.22 1019.26 1019.34 1019.46 1019.58 1019.70 1019.82 1019.94 1020.02 1020.10 1020.22 1020.38 1020.50 1020.66 1020.78 1020.90 1021.02 1021.18 1021.26 1021.30 1021.50 1021.62 1021.82 1021.94 1022.06 1022.18 1022.26 1022.14 1022.34 1022.38 1022.46 1022.74 1023.06 1023.34 1023.54 1024.38 1025.22 1025.78
1015.54 1015.54 1015.66 1015.82 1016.02 1016.26 1016.42 1016.58 1016.74 1016.90 1017.18 1017.46 1017.74 1018.06 1018.26 1018.54 1018.66 1018.70 1018.82 1018.94 1019.06 1019.10 1019.14 1019.18 1019.22 1019.22 1019.26 1019.38 1019.50 1019.70 1019.86 1019.98 1020.02 1020.10 1020.18 1020.30 1020.42 1020.58 1020.74 1020.90 1021.02 1021.14 1021.26 1021.34 1021.42 1021.58 1021.74 1021.90 1021.98 1022.06 1022.06 1022.02 1022.18 1022.10 1022.18 1022.22 1022.70 1022.94 1023.22 1023.94 1024.22 1025.26
1015.58 1015.66 1015.74 1015.90 1016.06 1016.30 1016.50 1016.70 1016.86 1017.06 1017.22 1017.50 1017.74 1017.98 1018.26 1018.58 1018.78 1018.78 1018.94 1018.98 1019.02 1019.14 1019.22 1019.22 1019.26 1019.26 1019.30 1019.30 1019.42 1019.58 1019.74 1019.86 1019.98 1020.02 1020.10 1020.26 1020.38 1020.54 1020.70 1020.86 1020.98 1021.14 1021.22 1021.30 1021.38 1021.46 1021.66 1021.74 1021.82 1021.86 1021.86 1021.98 1022.14 1022.18 1022.18 1022.38 1022.66 1023.06 1023.46 1023.82 1024.22 1025.18
1015.62 1015.74 1015.82 1015.98 1016.18 1016.46 1016.66 1016.82 1016.94 1017.10 1017.26 1017.50 1017.82 1018.06 1018.34 1018.54 1018.78 1018.82 1018.90 1018.90 1018.98 1019.02 1019.10 1019.10 1019.18 1019.26 1019.42 1019.46 1019.50 1019.66 1019.74 1019.82 1019.94 1020.06 1020.18 1020.30 1020.42 1020.50 1020.62 1020.74 1020.90 1021.06 1021.18 1021.22 1021.38 1021.46 1021.54 1021.70 1021.82 1021.82 1021.90 1022.10 1022.14 1022.10 1022.26 1022.50 1022.82 1023.02 1023.50 1023.94 1024.42 1024.66
1015.62 1015.82 1015.90 1016.06 1016.30 1016.50 1016.74 1016.94 1017.06 1017.22 1017.34 1017.62 1017.86 1018.14 1018.38 1018.50 1018.66 1018.86 1019.02 1018.98 1019.10 1019.14 1019.02 1019.14 1019.22 1019.38 1019.46 1019.46 1019.58 1019.70 1019.82 1019.94 1020.02 1020.14 1020.26 1020.34 1020.46 1020.54 1020.66 1020.78 1020.90 1021.06 1021.22 1021.30 1021.38 1021.50 1021.66 1021.74 1021.90 1021.94 1021.98 1021.98 1022.10 1022.18 1022.34 1022.66 1022.78 1022.98 1023.02 1023.26 1023.82 1024.46
1015.54 1015.82 1016.02 1016.14 1016.30 1016.46 1016.74 1016.98 1017.22 1017.38 1017.58 1017.74 1017.98 1018.18 1018.42 1018.58 1018.66 1018.66 1018.78 1018.86 1019.02 1019.10 1019.14 1019.22 1019.42 1019.42 1019.50 1019.50 1019.54 1019.62 1019.82 1019.98 1020.10 1020.22 1020.30 1020.42 1020.54 1020.62 1020.74 1020.86 1021.02 1021.18 1021.30 1021.42 1021.42 1021.54 1021.62 1021.74 1021.78 1021.86 1021.94 1022.14 1022.18 1022.18 1022.50 1022.70 1022.82 1022.94 1023.06 1023.22 1023.54 1023.94
1015.74 1015.98 1016.10 1016.18 1016.30 1016.54 1016.82 1017.06 1017.30 1017.42 1017.62 1017.82 1017.94 1018.06 1018.22 1018.42 1018.58 1018.70 1018.74 1018.86 1018.90 1019.06 1019.22 1019.30 1019.38 1019.46 1019.50 1019.58 1019.62 1019.62 1019.74 1019.94 1020.10 1020.22 1020.34 1020.46 1020.58 1020.66 1020.78 1020.90 1021.02 1021.14 1021.26 1021.42 1021.46 1021.50 1021.66 1021.70 1021.82 1021.98 1022.06 1022.10 1022.10 1022.26 1022.58 1022.74 1022.90 1023.14 1023.22 1023.38 1023.46 1023.66
Wind_Speed
7 7 7 7 7 8 9 14 12 13 12 13 12 12 11 12 11 11 9 11 8 5 4 5 7 6 11 7 8 9 11 10 9 8 8 9 9 9 9 10 11 12 12 10 8 8 9 9 10 13 12 12 11 6 5 5 5 4 4 4 4 4
7 8 7 6 6 6 7 9 7 7 6 8 9 10 8 6 7 4 10 7 3 3 4 5 5 8 5 7 8 11 10 9 8 8 7 7 8 8 8 8 10 11 10 8 7 4 5 7 10 12 12 12 6 5 5 5 5 4 4 3 4 5
8 8 7 6 6 6 6 6 7 7 6 7 7 6 4 6 4 5 5 5 5 3 3 4 5 6 6 9 8 11 10 8 9 8 6 6 6 7 7 7 8 10 9 8 5 4 4 5 6 12 10 7 5 5 5 5 5 4 3 3 3 7
9 8 6 5 5 6 5 6 5 5 6 5 5 4 5 5 6 6 6 5 4 4 3 4 9 13 10 6 6 9 10 10 9 8 7 4 6 6 7 8 8 7 5 3 4 4 5 5 5 5 5 5 4 5 5 5 4 4 4 3 2 8
8 7 7 6 6 5 5 5 5 5 5 5 5 5 4 5 5 6 6 5 5 4 3 4 5 4 5 5 4 4 4 4 4 4 5 4 3 3 3 3 3 4 3 3 4 5 5 5 5 5 5 5 5 5 5 4 3 3 3 3 3 5
10 9 8 7 6 7 7 5 6 6 6 5 5 5 4 4 5 4 5 5 5 5 5 5 5 5 5 5 4 4 4 4 4 3 3 3 3 2 2 3 4 5 4 3 4 4 4 6 6 5 5 5 5 5 4 3 3 3 2 2 1 5
10 9 9 8 7 6 6 5 5 6 6 5 5 5 5 4 5 4 4 5 5 5 5 5 5 5 5 4 4 4 4 4 4 3 2 3 4 3 4 4 5 5 4 4 5 4 5 5 6 6 5 5 5 5 4 3 3 3 3 3 3 6
10 10 9 9 8 7 6 7 6 7 6 6 6 5 4 4 5 5 4 4 4 4 5 5 5 5 4 4 4 4 4 4 3 3 2 3 4 3 4 4 4 4 5 4 5 5 5 5 6 6 6 6 5 4 3 3 3 3 3 3 4 7
9 10 8 8 8 7 7 7 6 6 6 7 5 4 3 4 4 4 4 4 4 5 4 5 5 4 4 4 4 4 3 3 3 2 2 3 2 4 4 4 4 4 4 5 5 6 5 5 5 5 6 6 5 4 4 3 4 4 3 3 4 7
8 8 7 7 6 7 8 8 7 6 5 6 6 2 2 3 3 4 4 4 4 4 4 5 4 4 5 4 4 4 4 3 2 1 2 3 1 3 4 4 4 5 5 5 5 4 5 6 5 5 5 5 5 4 3 4 5 4 3 4 4 5
7 6 6 7 7 7 6 7 6 6 6 6 7 3 2 3 4 4 4 4 4 4 5 4 4 4 4 5 4 3 3 2 2 1 1 2 0 2 3 4 4 5 5 5 5 4 5 6 5 5 5 6 5 4 4 5 5 4 4 3 4 4
7 6 6 7 7 7 7 8 7 6 6 7 6 3 1 1 4 4 2 3 4 5 4 4 4 4 5 5 4 3 2 2 2 1 1 2 2 2 4 4 5 5 5 5 5 5 4 6 6 5 5 6 4 4 5 5 5 4 4 4 4 4
7 7 7 7 5 4 5 7 7 6 6 7 5 4 4 5 4 3 2 4 4 5 4 5 4 5 5 5 4 3 2 2 2 2 2 3 4 3 4 5 5 5 6 5 6 5 5 5 6 6 6 5 4 5 6 5 4 4 4 4 4 4
7 7 6 7 8 7 4 5 5 6 6 6 5 5 5 6 6 3 3 3 3 3 4 4 5 4 4 4 4 3 3 2 2 2 2 3 4 3 4 5 5 5 5 5 5 4 5 6 5 5 5 5 5 6 5 6 4 4 3 4 4 4
8 6 7 6 6 6 5 6 6 6 5 5 4 4 4 4 6 5 2 3 3 4 4 4 3 4 4 4 4 4 3 2 2 2 2 2 4 3 4 5 4 6 5 5 5 3 4 6 7 6 4 3 4 7 5 6 5 4 4 3 4 4
7 7 5 5 4 6 5 5 6 6 5 5 5 4 4 4 4 3 3 3 3 3 4 4 4 4 4 4 4 4 3 2 3 3 3 3 4 4 4 5 4 5 7 4 5 4 4 6 5 7 6 5 3 5 5 5 5 3 3 4 4 4
9 7 7 6 6 5 5 6 6 6 6 6 5 5 4 4 4 3 3 3 3 4 4 4 4 4 4 4 4 4 4 4 4 4 4 4 4 3 5 5 4 3 4 5 5 5 5 6 6 5 4 4 2 4 5 4 4 3 3 4 3 3
7 6 6 6 6 5 5 5 5 5 5 5 4 4 4 4 3 3 3 3 3 4 4 4 4 4 4 4 4 4 4 4 4 4 4 4 3 3 4 5 5 4 4 5 5 6 7 6 6 5 5 5 5 5 4 3 3 4 3 3 4 5
8 7 6 6 6 5 5 5 4 5 5 4 4 3 4 4 3 3 3 3 3 4 4 4 4 3 4 4 4 4 4 4 4 4 5 4 4 4 4 4 6 6 5 3 5 5 6 7 6 6 5 5 5 5 4 3 3 3 3 3 4 5
8 7 7 7 5 5 5 5 5 4 5 4 3 4 3 3 3 3 3 3 3 3 4 4 3 3 3 4 4 4 4 4 4 5 5 5 4 4 5 6 6 8 8 5 4 5 6 7 7 7 7 5 5 4 4 3 4 4 3 4 4 4
7 7 6 7 6 6 6 6 4 5 5 4 4 3 3 2 2 3 4 4 4 4 4 5 4 4 3 4 3 4 4 4 4 4 5 5 4 4 4 5 6 5 8 7 4 5 5 7 8 6 5 5 4 3 4 5 5 5 4 4 4 6
7 8 7 7 7 7 6 6 5 5 4 5 5 5 3 2 3 4 4 4 5 4 4 5 5 4 3 3 4 4 5 5 4 4 4 4 4 4 5 6 6 6 3 6 4 4 6 7 3 4 6 4 4 5 5 6 7 6 5 5 5 6
7 8 7 8 8 7 5 4 4 4 5 4 3 3 3 3 4 4 4 4 3 4 3 4 4 5 5 4 4 4 5 4 4 5 5 5 5 5 5 6 6 7 6 3 4 2 1 3 4 3 3 6 3 4 4 5 5 7 5 5 6 7
7 7 7 7 6 4 5 5 6 6 5 4 4 3 3 3 3 4 3 3 4 4 4 4 5 5 4 5 5 5 5 6 5 5 6 6 5 5 5 5 5 6 8 8 3 1 2 1 4 7 3 2 3 4 5 4 6 5 4 6 7 6
7 7 6 7 6 6 7 7 6 6 6 6 5 4 4 3 3 4 4 4 4 5 5 5 5 5 4 5 4 4 5 5 6 5 5 6 6 6 5 5 6 6 8 9 6 3 2 1 4 2 6 5 3 1 2 4 5 5 5 6 7 6
6 6 7 7 7 7 7 8 7 7 6 4 5 5 5 5 4 5 4 3 3 3 4 4 3 3 4 4 4 4 4 5 5 5 5 6 6 5 5 6 6 6 6 3 7 6 3 2 1 2 1 1 4 5 7 4 3 3 4 5 4 6
7 6 6 6 6 6 6 6 6 7 6 6 7 2 1 2 5 4 4 5 4 3 3 4 3 3 3 3 4 4 5 5 5 5 4 5 6 6 6 5 4 5 4 4 5 6 7 5 2 1 1 1 2 2 8 8 3 6 5 3 5 4
6 6 6 6 6 6 7 6 6 5 5 5 5 5 3 4 3 4 5 4 4 3 3 3 3 3 3 3 4 4 4 4 5 4 5 5 5 5 5 4 4 3 5 5 5 7 5 6 7 3 2 3 5 6 5 5 6 7 7 7 3 4
7 6 6 6 7 6 7 7 6 6 5 2 4 4 4 3 4 4 5 3 4 3 3 2 2 3 3 3 3 4 4 4 5 5 5 5 4 5 7 7 6 5 6 5 4 5 6 7 4 3 3 5 6 5 5 5 5 5 5 7 4 4
7 6 6 6 6 5 5 6 6 5 6 4 4 4 4 4 3 3 4 3 3 3 3 3 3 2 3 3 4 4 4 5 4 5 4 5 5 5 5 6 7 7 6 6 4 5 6 4 4 6 4 4 4 3 4 3 4 5 6 4 8 8
5 5 5 6 6 6 5 5 6 6 6 6 4 5 5 3 3 3 4 2 3 2 2 2 2 2 2 2 3 4 4 4 4 4 5 5 6 6 6 6 5 5 6 7 5 5 4 6 5 6 6 6 6 8 7 5 7 4 6 5 7 6
5 6 5 6 6 6 6 5 4 6 7 6 6 5 6 5 4 4 3 3 2 3 2 2 2 2 3 3 3 3 4 4 5 5 5 5 5 6 5 5 5 5 5 5 5 5 5 6 6 5 6 5 6 5 4 5 6 6 8 7 9 8
6 5 6 6 7 6 6 6 6 6 6 6 6 6 6 5 3 4 4 4 3 3 2 3 1 3 2 2 2 4 5 5 5 5 4 4 4 5 6 5 5 5 5 6 6 6 6 7 7 7 7 5 4 4 4 3 6 6 5 7 10 9
6 5 5 6 6 7 6 6 6 7 7 7 6 5 5 6 4 4 5 5 5 5 5 4 4 3 2 2 2 2 2 3 2 2 2 2 3 4 5 5 5 6 6 5 5 6 5 6 5 5 5 5 5 4 4 5 6 7 8 8 8 10
8 6 6 6 6 7 6 6 6 6 7 5 6 6 5 6 6 5 3 4 3 3 4 4 4 2 2 3 4 4 4 5 4 4 3 3 3 3 3 3 3 3 3 4 5 5 4 6 5 5 5 5 4 3 4 6 6 7 8 9 10 9
8 6 6 7 6 7 6 6 5 6 6 6 4 5 5 4 4 5 6 5 5 3 3 4 2 3 2 3 4 5 5 5 5 5 4 4 4 4 4 4 3 3 4 2 4 5 4 5 6 6 6 4 4 4 4 5 5 6 6 7 8 8
6 5 5 6 7 6 6 7 6 6 7 6 7 7 7 6 6 4 4 4 5 4 3 3 4 2 3 3 4 5 5 5 5 5 5 5 5 5 5 4 4 5 4 4 4 5 4 5 4 5 5 6 5 4 4 4 4 5 5 6 7 8
Wind_Direction
150 148 147 143 142 145 154 147 145 141 139 140 139 140 143 143 145 151 142 134 125 117 107 119 121 121 123 115 112 119 124 124 121 120 110 106 103 98 94 93 94 92 90 86 80 70 78 92 114 138 137 139 125 102 114 102 104 104 109 103 114 154
151 150 142 136 147 148 149 141 130 135 136 139 140 140 140 135 136 129 145 123 90 105 109 111 113 114 106 116 117 119 120 121 121 112 104 97 101 100 94 93 95 95 95 96 87 70 63 97 126 137 141 125 104 114 103 102 102 110 106 108 123 135
154 150 143 142 148 148 134 129 134 134 135 135 133 131 121 121 93 105 96 105 110 79 87 95 99 117 116 120 120 121 122 124 118 111 102 101 92 83 85 90 91 97 102 100 86 76 89 76 124 139 124 106 111 109 101 98 102 110 129 141 109 139
155 147 135 135 133 132 133 132 125 120 122 125 113 110 110 120 120 115 111 100 101 120 123 114 137 132 118 99 113 122 130 124 115 110 98 69 70 69 64 69 82 85 80 70 81 89 88 90 96 87 96 101 97 97 94 102 115 130 147 156 192 142
152 140 138 138 135 131 122 113 104 109 111 112 115 114 115 115 118 113 112 113 123 125 107 87 78 80 92 97 87 76 65 67 72 71 73 59 42 40 46 59 75 72 87 93 100 104 98 100 100 98 98 103 92 85 89 91 113 138 146 138 161 139
151 147 146 140 133 133 126 118 117 116 112 105 108 102 99 103 105 107 117 128 116 112 97 92 89 91 98 107 99 95 89 89 79 77 59 64 42 40 40 57 83 85 85 91 105 104 94 112 114 105 95 88 92 88 95 105 125 139 110 82 65 100
147 145 140 133 129 121 121 118 119 124 121 117 112 116 114 112 112 119 128 127 122 113 110 107 107 108 110 104 104 100 99 78 82 77 57 65 52 48 63 71 77 85 97 98 92 92 85 93 113 113 101 96 98 102 107 134 140 109 67 67 87 93
146 147 144 140 133 131 123 127 131 125 123 129 122 119 116 123 125 131 130 124 120 120 128 121 114 114 117 105 105 100 85 82 77 68 55 67 85 50 59 64 80 84 89 89 91 83 88 103 119 123 115 108 104 109 131 142 114 75 64 67 68 76
143 144 140 138 137 131 134 130 123 129 133 128 111 113 116 118 131 129 116 122 126 125 113 115 120 122 112 106 107 89 93 88 79 73 77 61 96 105 78 86 87 90 90 91 90 96 100 95 117 123 124 115 110 122 141 111 82 75 68 65 62 73
141 143 140 138 137 137 136 127 129 132 125 103 62 8 142 119 113 108 114 120 118 120 119 127 125 128 123 107 92 86 81 84 106 100 109 113 34 117 126 103 89 83 89 90 90 102 108 108 107 109 107 110 112 132 124 98 79 71 65 54 53 62
137 144 146 140 143 138 128 123 127 119 111 115 134 189 220 140 117 119 120 128 128 126 122 128 133 126 103 100 91 93 85 83 108 124 150 118 95 119 86 84 88 92 90 92 81 85 107 111 107 98 100 118 134 129 102 81 82 89 79 63 60 60
148 150 149 143 142 138 133 132 132 130 135 135 146 169 126 62 94 45 101 131 130 124 125 129 127 108 104 102 101 100 120 121 135 144 146 130 113 65 85 82 81 84 84 87 88 78 80 110 106 100 112 123 139 124 100 92 99 100 85 66 67 56
151 159 152 141 118 97 131 129 135 136 139 143 146 147 122 85 65 147 249 143 140 135 133 135 121 119 116 115 115 123 137 153 153 150 121 117 111 81 83 84 76 85 86 87 91 87 90 92 108 113 120 131 129 121 97 95 85 70 75 72 65 66
156 157 145 133 149 144 146 133 130 125 134 135 136 141 139 148 139 198 220 109 122 117 112 109 123 102 105 113 126 143 151 148 147 134 119 114 102 89 90 93 101 91 90 97 97 108 118 106 102 113 124 132 118 92 87 80 58 86 78 77 76 72
165 150 143 146 150 129 154 143 132 127 130 129 131 133 127 136 141 185 143 119 128 128 121 117 114 126 123 133 148 151 155 144 132 122 105 86 111 73 91 99 110 102 88 91 92 80 98 108 114 115 104 83 108 106 102 117 108 95 91 86 76 75
163 152 137 146 131 135 145 137 135 133 126 131 134 131 140 151 127 121 120 128 137 121 115 114 114 123 137 154 146 139 152 148 134 126 117 98 97 107 102 98 76 117 117 94 106 87 68 91 93 98 96 108 356 91 107 98 102 102 93 81 77 77
167 159 139 132 126 128 133 138 136 128 133 136 144 136 136 119 114 129 123 147 134 119 115 118 126 136 148 159 137 138 160 152 134 124 106 92 92 118 126 110 88 70 109 131 124 119 89 90 95 92 110 98 94 74 85 94 105 110 84 81 71 62
167 150 134 132 134 132 128 122 117 122 130 132 130 125 122 117 118 128 137 149 131 119 126 133 142 154 149 151 138 141 156 145 129 110 107 101 110 111 111 122 106 75 107 128 137 130 107 101 100 94 83 78 44 63 67 71 87 83 75 73 64 61
163 148 128 121 123 115 111 95 93 108 110 112 102 95 115 118 134 137 152 134 122 126 136 138 148 156 145 145 127 139 146 137 132 123 114 106 113 109 103 98 113 102 73 77 130 109 110 106 98 88 73 53 65 67 69 68 74 73 70 78 91 81
157 148 132 126 128 127 124 131 132 119 113 125 119 121 109 137 146 137 136 129 139 148 143 140 140 145 136 144 149 150 141 142 133 125 122 123 122 136 136 116 111 115 111 96 76 97 102 103 86 79 75 51 49 87 101 102 80 78 77 77 87 82
146 143 141 141 147 145 145 137 140 154 148 135 136 129 134 143 140 146 148 150 156 158 151 148 146 139 126 156 148 146 143 143 128 126 130 138 141 136 130 122 114 108 123 119 94 96 103 105 104 78 73 80 60 61 94 98 81 68 65 68 78 77
139 143 149 155 158 163 168 167 153 155 132 140 148 150 147 155 176 166 159 161 165 165 151 151 155 139 141 166 151 157 150 149 138 113 112 120 130 134 127 125 127 95 27 118 112 135 138 114 53 141 133 102 64 64 69 69 65 51 60 68 75 81
143 146 155 163 164 167 158 134 132 130 132 109 75 107 133 172 174 166 157 161 141 132 147 157 154 154 173 192 155 150 145 145 136 135 128 133 134 137 147 146 148 133 118 33 99 68 63 37 132 122 94 100 71 74 360 36 43 39 37 66 70 72
151 152 161 165 158 132 126 113 101 116 98 105 138 119 95 114 124 124 133 145 145 170 173 170 163 161 163 167 163 156 148 155 150 145 147 148 148 150 146 143 132 136 132 129 122 129 324 228 169 143 94 75 167 119 94 39 58 27 20 55 68 72
159 163 162 154 143 136 120 100 102 95 98 83 76 91 100 78 124 143 128 135 139 155 162 165 164 160 158 164 157 151 160 157 153 147 152 155 157 165 165 156 154 150 160 149 148 111 318 115 184 332 144 123 69 74 197 169 118 44 358 51 54 72
151 155 157 145 145 139 137 134 132 131 130 117 132 136 155 159 159 159 150 115 95 132 143 145 147 146 151 146 155 159 157 158 155 152 163 161 149 143 156 163 180 164 158 175 145 135 131 34 59 47 29 203 168 170 159 187 92 97 31 49 52 66
154 147 141 138 141 131 122 130 144 150 151 156 150 207 182 135 148 109 111 116 107 97 115 130 124 126 144 146 139 154 164 164 156 158 153 147 156 168 169 170 156 153 137 123 139 141 155 164 115 46 24 321 74 103 145 139 121 113 105 3 25 42
147 142 139 138 134 136 134 140 134 140 149 149 152 159 153 126 95 111 96 106 105 89 93 116 126 137 146 148 142 146 147 148 152 148 150 176 167 161 148 122 140 151 142 171 165 137 169 182 169 186 14 37 70 86 74 58 129 151 134 133 95 63
143 140 139 142 138 143 145 149 146 143 130 112 126 124 110 84 89 86 95 80 94 83 73 73 108 137 145 156 162 155 154 150 152 156 167 154 157 166 166 155 162 163 169 163 173 166 160 189 162 105 62 39 68 73 61 66 93 95 138 126 118 133
145 142 143 143 141 139 138 137 139 145 134 116 101 82 88 89 81 92 107 93 98 95 91 100 92 122 146 163 156 148 152 163 165 160 160 160 157 166 173 172 178 173 167 164 169 166 182 122 109 130 148 166 119 101 69 74 62 101 59 58 148 157
141 136 144 147 142 139 138 145 147 143 136 130 117 114 100 83 89 88 106 76 68 60 50 64 79 77 107 131 156 159 155 164 168 168 160 160 165 173 180 180 167 156 164 164 171 168 130 145 152 132 156 172 163 164 172 173 172 156 133 118 107 129
145 150 148 145 137 139 145 148 146 142 141 141 139 142 144 152 154 141 130 109 77 77 51 56 61 85 72 77 111 138 147 152 170 173 177 175 168 169 167 158 156 163 168 166 154 154 151 159 166 153 181 174 201 184 165 158 156 143 141 148 140 144
156 155 149 148 147 147 148 154 152 147 141 142 151 152 149 142 156 143 145 129 121 124 119 100 123 119 69 74 95 116 150 162 172 190 184 170 165 159 157 161 166 163 165 171 176 165 165 175 173 171 191 187 181 168 169 117 121 115 89 122 130 125
156 157 149 147 145 145 155 156 154 149 149 150 157 149 147 148 160 159 162 156 159 161 163 175 170 155 172 126 102 118 138 139 130 135 152 152 146 153 158 165 164 167 175 177 160 171 168 166 179 181 154 154 180 177 144 131 129 129 134 129 137 139
155 163 152 148 142 146 149 151 152 149 146 149 149 145 151 152 151 155 173 149 159 159 151 177 157 157 114 114 116 111 113 107 111 115 115 119 120 121 134 136 153 140 128 156 162 151 147 155 163 168 174 168 154 151 139 135 144 148 154 150 146 149
160 153 147 145 152 151 150 143 138 141 145 140 135 131 131 142 158 163 163 158 161 165 155 137 126 117 95 108 123 109 103 108 118 113 105 108 111 112 116 116 95 104 107 109 141 152 169 169 173 174 170 136 138 165 141 144 152 156 152 150 145 151
146 141 144 154 151 147 140 136 142 142 140 141 149 155 159 163 164 158 152 154 151 154 133 128 127 112 93 78 95 108 103 102 102 112 108 107 112 113 110 108 120 126 129 129 128 159 165 175 172 157 144 161 166 158 153 142 135 135 135 144 153 156